Current Version              Previous Version:    01  02  03  04  05  06  07  08  09  10  11  12  13  14  15  16  17  18  19  20  21  22  23  24  25  26  27  28  29  30  
   31  32  33  34  35  36  37  38  39  40  41  42  43  44  45  46  47  48  49  50  51  52  53  54  55  56  57  58  59  60  

[Printable]
622
ASUS44 KLUB 280810
RWRTX
WEST TEXAS WEATHER ROUNDUP
NATIONAL WEATHER SERVICE LUBBOCK TX
200 AM CST WED JAN 28 2015

NOTE: "FAIR" INDICATES FEW OR NO CLOUDS BELOW 12,000 FEET WITH NO
SIGNIFICANT WEATHER AND/OR OBSTRUCTIONS TO VISIBILITY.

TXZ004-006>008-010-012-014-016-OKZ002-280900-
TEXAS PANHANDLE/OKLAHOMA PANHANDLE

CITY           SKY/WX    TMP DP  RH WIND       PRES   REMARKS
AMARILLO       CLEAR     44  34  67 S10       30.05F
BORGER         CLEAR     57  34  41 SW13      30.01F
CANADIAN       CLEAR     51  37  57 CALM      29.99F
DALHART        CLEAR     36  32  85 SW7       30.01F WCI  30
DUMAS          CLEAR     43  36  75 SW12      30.01F
GUYMON         CLEAR     40  34  79 S8        29.96F WCI  34
HEREFORD       CLEAR     54  40  58 SW20      30.07F
PAMPA          CLEAR     51  33  50 SW15      30.03F
PERRYTON         N/A     50  34  55 SW15      29.98F
$$

TXZ026-029-035-045-048-280900-
SOUTHERN PANHANDLE/SOUTH PLAINS/ROLLING PLAINS

CITY           SKY/WX    TMP DP  RH WIND       PRES   REMARKS
CHILDRESS      CLEAR     50  35  56 SW9       30.06F
SEMINOLE       CLEAR     47  35  62 SW8       30.16S
LUBBOCK        CLEAR     43  34  70 W9        30.10F
PLAINVIEW      CLEAR     40  33  75 W8        30.08F WCI  35
SNYDER         CLEAR    N/A N/A N/A S9        30.12F
$$

TXZ052-054-060>062-072-078-127-140-154-169-280900-
PERMIAN BASIN/CONCHO VALLEY/BIG COUNTRY/EDWARDS PLATEAU

CITY           SKY/WX    TMP DP  RH WIND       PRES   REMARKS
ABILENE        CLEAR     49  37  63 S6        30.11F
BIG SPRING     CLEAR     51  38  60 SE7       30.16S
BRADY          CLEAR     50  36  57 SW5       30.13S
BROWNWOOD      CLEAR     41  39  93 CALM      30.13S
JUNCTION       CLEAR     40  35  83 W3        30.16F
MIDLAND        CLEAR     52  38  58 SW6       30.14F
ODESSA         CLEAR     52  35  52 S5        30.15F
SAN ANGELO     CLEAR     47  38  71 CALM      30.13F
SONORA         CLEAR     41  36  81 MISG      30.20F
SWEETWATER     CLEAR     60  33  36 S13       30.14F
WINK           CLEAR     42  34  73 N6        30.13F
$$

TXZ055-058-074-075-080-082-280900-
FAR WEST/SOUTHWEST MOUNTAINS/TRANS PECOS

CITY           SKY/WX    TMP DP  RH WIND       PRES   REMARKS
ALPINE         PTCLDY    51  44  76 SW5       30.28S
DRYDEN           N/A     54  39  57 N5        30.13F
EL PASO        PTCLDY    49  41  74 CALM      30.19F
FORT STOCKTON  CLEAR     55  44  66 SW15      30.15F
GUADALUPE PASS CLEAR     50  39  66 SW13      30.25F
MARFA          PTCLDY    39  37  93 NW7       30.26F WCI  34
PECOS          CLEAR     43  39  87 CALM      30.15F
PRESIDIO       FAIR      55  45  69 N13       30.18S
$$

TXZ014-016-019-021>030-083-280900
TEXAS TECH WEST TEXAS MESONET/TEXAS PANHANDLE/NORTHERN SOUTH PLAINS

CITY           SKY/WX    TMP DP  RH WIND       PRES   REMARKS
ABERNATHY 5ENE   N/A     43  35  73 W9        30.11F
AMARILLO 9NNE    N/A     53  37  54 SW12      30.03F
AMARILLO 7SSE    N/A     46  34  65 SW8       30.07S
AMHERST 1NE      N/A     48  35  60 W12       30.11F
BOOTLEG 11WNW    N/A     46  36  67 SW15      30.11F
CANADIAN 6E      N/A     44  33  64 S3        29.98F
CAPROCK CYN SP   N/A     56  30  36 W10       30.06F
CLARENDON 2WSW   N/A     47  32  55 S14       30.05F
CLAUDE 12SW      N/A     55  33  43 SW8       30.07S
DIMMITT 2NE      N/A     51  33  49 SW20      30.09F
FLOYDADA 2NNE    N/A     45  32  60 SW10      30.09F
FRIONA 2NE       N/A     50  38  63 SW15      30.10F
GOODLETT 3W      N/A     46  35  65 SW9       30.04F
HART 3N          N/A     37  32  82 W8        30.09F WCI  31
HEREFORD 2NW     N/A     49  37  62 SW16      30.07F
MCLEAN 1E        N/A     50  33  50 SW12      30.03F
MEMPHIS 1NE      N/A     38  32  80 W1        30.04F
MULESHOE 2SSW    N/A     42  33  71 W8        30.12F
OLTON 6S         N/A     40  33  74 W10       30.10F WCI  34
PALO DURO SP     N/A     53  34  49 SW12      30.07F
PAMPA 2E         N/A     48  34  58 S10       30.03F
PLAINVIEW 1S     N/A     42  34  72 SW6       30.09F
SILVERTON 7ESE   N/A     41  33  73 SW9       30.08F
TULIA 2ENE       N/A     48  33  56 W16       30.08F
TURKEY 2WSW      N/A     49  35  60 SW13      30.05F
UMBARGER 3NNE    N/A     45  36  70 SW10      30.06F
$$

TXZ033>036-039>041-045>048-280900
TEXAS TECH WEST TEXAS MESONET/SOUTH PLAINS

CITY           SKY/WX    TMP DP  RH WIND       PRES   REMARKS
AIKEN 3WSW       N/A     38  33  81 W6        30.10F WCI  33
ANDREWS 2NE      N/A     51  35  55 SW7       30.14F
ANTON 6SSW       N/A     38  33  81 SW3       30.11F
BROWNFIELD 2S    N/A     45  35  67 W10       30.13S
DENVR CTY 7WNW   N/A     45  34  65 SW8       30.14S
GAIL 2ESE        N/A     50  35  55 SW9       30.11S
LAMESA 2SE       N/A     44  35  71 W7        30.14S
LEVELLAND 4S     N/A     41  34  75 W9        30.12S
LUBBOCK 3WNW     N/A     45  34  66 W5        30.12S
MORTON 1ENE      N/A     43  34  72 W9        30.13S
ODONNELL 1N      N/A     40  33  78 SW6       30.13S
PLAINS 3N        N/A     38  34  86 SW8       30.14S WCI  32
RALLS 1SE        N/A     45  34  65 W3        30.11F
REESE CENTER     N/A     41  34  76 W8        30.11F
SEAGRAVES 1SW    N/A     42  35  78 SW7       30.14S
SEMINOLE 2NNE    N/A     49  34  56 SW7       30.14F
SLATON 2NE       N/A     47  34  61 SW10      30.11S
SNYDER 3E        N/A     49  34  57 S6        30.11F
SUNDOWN 8SW      N/A     42  35  74 SW9       30.13S
TAHOKA 3NNE      N/A     47  35  61 SW9       30.12S
WOLFFORTH 6SSW   N/A     41  36  83 SW7       30.12F
$$

TXZ031-032-036>038-042>044-280900-
TEXAS TECH WEST TEXAS MESONET/ROLLING PLAINS

CITY           SKY/WX    TMP DP  RH WIND       PRES   REMARKS
ASPERMONT 3NE    N/A     49  35  58 S7        30.08F
FLUVANNA 3WNW    N/A     49  32  51 S6        30.12S
GRAHAM 5SSW      N/A     48  34  56 W13       30.11S
GUTHRIE 10WSW    N/A     51  33  50 SW3       30.08S
HASKELL 1NW      N/A     49  38  67 S6        30.08F
JAYTON 1SSE      N/A     50  33  53 W7        30.09F
KNOX CITY 3NW    N/A     42  35  77 SW5       30.08S
LK A HENRY 1NW   N/A     48  33  55 SW3       30.10S
NORTHFIELD 1S    N/A     49  35  58 SW8       30.05F
ODELL 4ENE       N/A     53  39  58 S10       30.05F
PADUCAH 10SW     N/A     56  32  40 SW14      30.06F
POST 1NE         N/A     51  35  52 W14       30.09F
RRING SPRGS 3N   N/A     53  34  47 SW8       30.08F
SEYMOUR 3NW      N/A     49  39  66 S5        30.07F
SPUR 1W          N/A     41  34  76 NW3       30.09S
WEINERT 2NNE     N/A     44  38  80 S6        30.08F
WHITE RVR 6NE    N/A     54  33  45 W6        30.09F
$$

TXZ052-054-060>062-072-078-127-140-154-169-280900-
TEXAS TECH WEST TEXAS MESONET/PERMIAN BASIN/
CONCHO VALLEY/BIG COUNTRY/EDWARDS PLATEAU

CITY           SKY/WX    TMP DP  RH WIND       PRES   REMARKS
COYANOSA 2N      N/A     45  40  84 W3        30.15S
JUNCTION 1SSW    N/A     39  35  86 SW1       30.17S
MERTZON 3NNE     N/A     43  37  79 SW2       30.15F
SAN ANGELO 7NW   N/A     43  36  76 SW3       30.14S
STRLNG CT 4WSW   N/A     40  35  83 CALM      30.15F
ST LAWRNCE 5SW   N/A     46  36  67 S7        30.15S
SWEETWATR 11SW   N/A     52  33  48 S3        30.14S
WALL 1E          N/A     46  38  72 SW7       30.14S
$$

TXZ055-058-074-075-080-082-280900-
TEXAS TECH WEST TEXAS MESONET/FAR WEST/SOUTHWEST MOUNTAINS/TRANS PECOS

CITY           SKY/WX    TMP DP  RH WIND       PRES   REMARKS
PRSMN GAP BBNP   N/A     49  43  79 NE2       30.17F
GUADLPE MTN NP   N/A     57  40  53 W10       30.24F
$$